Flag for Turkey Weather past 2 weeks in Kayseri, Turkey

36 °F

Partly cloudy.

Feels Like: 31 °F
Forecast: 31 / 43 °F
Wind: 6 mph from Southwest

Location: Kayseri / Erkilet

Current Time: Dec 1, 2015 at 3:23:16 AM

Latest Report: Dec 1, 2015 at 2:50 AM

Visibility: N/A

Pressure: 30.09 "Hg (26.40 "Hg at 1052m altitude)

Humidity: 93%

Dew point: 34 °F

Location of KayseriLocation

Historic Weather in Kayseri — Graph


Kayseri temperature yesterday

Maximum temperature yesterday: 45 °F (at 11:50 AM)
Minimum temperature yesterday: 25 °F (at 6:50 AM)
Average temperature yesterday: 37 °F

Past Weeks' High & Low Weather Summary

High66 °F (Nov 26, 11:50 AM)100% (Nov 16, 4:20 AM)30.39 "Hg (Nov 16, 4:20 AM)
Low21 °F (Nov 18, 3:50 AM)15% (Nov 25, 1:20 PM)29.86 "Hg (Nov 26, 12:20 PM)
Average43 °F61%30.11 "Hg
* Reported Nov 16 1:50 AM — Dec 1 1:50 AM, Kayseri, Weather by CustomWeather, © 2015

Note: Actual official high and low records may vary slightly from our data, if they occured in-between our weather recording intervals... More about our weather records


Kayseri weather history for previous 24 hours

Time TempWeatherWind HumidityBarometerVisibility
1:50 AM
Tue, Dec 1
37 °FPartly cloudy.3 mph87%30.09 "HgN/A
12:50 AM37 °FPartly cloudy.5 mph93%30.09 "HgN/A
12:20 AM37 °FPartly cloudy.5 mph93%30.09 "HgN/A
11:50 PM
Mon, Nov 30
37 °FPassing clouds.5 mph93%30.09 "HgN/A
11:20 PM37 °FPassing clouds.5 mph93%30.09 "HgN/A
10:50 PM37 °FOvercast.2 mph93%30.09 "HgN/A
10:20 PM37 °FOvercast.5 mph93%30.09 "HgN/A
9:50 PM39 °FOvercast.3 mph87%30.07 "HgN/A
9:20 PM39 °FOvercast.5 mph87%30.07 "HgN/A
8:50 PM39 °FOvercast.6 mph87%30.07 "HgN/A
8:20 PM39 °FOvercast.3 mph93%30.07 "HgN/A
7:50 PM37 °FOvercast.No wind93%30.07 "Hg5 mi
7:20 PM37 °FOvercast.No wind93%30.07 "Hg4 mi
6:50 PM37 °FOvercast.No wind93%30.07 "Hg4 mi
6:20 PM37 °FLight rain. Overcast.1 mph93%30.07 "HgN/A
5:50 PM37 °FLight rain. Overcast.No wind93%30.07 "Hg4 mi
5:20 PM37 °FOvercast.No wind93%30.04 "Hg4 mi
4:50 PM37 °FLight rain. Overcast.2 mph93%30.04 "Hg5 mi
4:20 PM37 °FLight rain. Overcast.5 mph93%30.04 "Hg6 mi
3:50 PM37 °FLight rain. Cloudy.8 mph93%30.04 "Hg5 mi
3:20 PM37 °FLight rain. Cloudy.9 mph93%30.04 "HgN/A
2:50 PM39 °FLight rain. Cloudy.10 mph87%30.04 "HgN/A
2:20 PM39 °FLight rain. Cloudy.10 mph93%30.01 "Hg6 mi
1:50 PM41 °FLight rain. Cloudy.13 mph93%30.01 "Hg4 mi
1:20 PM43 °FLight rain. Cloudy.9 mph87%29.98 "Hg5 mi
12:50 PM43 °FSleet. Fog.7 mph87%29.98 "Hg4 mi
12:20 PM45 °FLight rain. Partly sunny.2 mph71%29.98 "Hg4 mi
11:50 AM45 °FPartly sunny.No wind71%29.98 "Hg4 mi
11:20 AM43 °FLight rain. Fog.8 mph76%29.98 "Hg2 mi
10:50 AM43 °FPartly sunny.2 mph76%30.01 "Hg5 mi
10:20 AM43 °FBroken clouds.No wind71%30.01 "Hg5 mi
9:50 AM43 °FBroken clouds.No wind71%30.01 "Hg5 mi
9:20 AM41 °FBroken clouds.2 mph76%30.01 "Hg5 mi
8:50 AM39 °FBroken clouds.2 mph81%30.01 "HgN/A
8:20 AM39 °FBroken clouds.3 mph75%30.01 "HgN/A
7:50 AM36 °FBroken clouds.No wind93%30.01 "Hg5 mi
7:20 AM27 °FScattered clouds.No wind93%30.04 "HgN/A
6:50 AM25 °FScattered clouds.1 mph86%30.04 "HgN/A
6:20 AM28 °FPassing clouds.No wind86%30.04 "HgN/A
5:20 AM28 °FPassing clouds.2 mph86%30.04 "HgN/A
4:50 AM28 °FPassing clouds.No wind86%30.04 "HgN/A
4:20 AM28 °FPassing clouds.5 mph93%30.04 "HgN/A
3:50 AM27 °FPassing clouds.1 mph93%30.04 "HgN/A
Weather by CustomWeather, © 2015

See weather overviewHow to use our weather pages